When you browse on this site, cookies collect data to enhance your experience and personalize the content and advertising you see.
Visit our Privacy Policy to learn more. By continuing to use the site, you agree to this use of cookies and data.
  • In Portugal
  • List of Countries
  • For 7 days
  • Water Temperature
  • Satellite Maps
  • Weather Map
  • Weather Widgets
  • user-avatar
    Login

    Hourly Weather Janczewy

    Today, 18 April, Thursday

    Time Temperature Precipitation Wind Pressure Humidity
    00:00 +9°C° 0 mm 2 mps 761 mmHg 67%
    01:00 +8°C° 0 mm 2 mps 761 mmHg 67%
    02:00 +8°C° 0 mm 2 mps 761 mmHg 69%
    03:00 +7°C° 0 mm 2 mps 761 mmHg 71%
    04:00 +7°C° 0 mm 2 mps 761 mmHg 72%
    05:00 +8°C° 0 mm 2 mps 762 mmHg 71%
    06:00 +9°C° 0 mm 2 mps 762 mmHg 69%
    07:00 +10°C° 0 mm 2 mps 762 mmHg 67%
    08:00 +13°C° 0 mm 2 mps 762 mmHg 60%
    09:00 +14°C° 0 mm 3 mps 762 mmHg 54%
    10:00 +18°C° 0 mm 3 mps 763 mmHg 47%
    11:00 +18°C° 0 mm 3 mps 762 mmHg 44%
    12:00 +19°C° 0 mm 3 mps 762 mmHg 41%
    13:00 +19°C° 0 mm 3 mps 762 mmHg 38%
    14:00 +20°C° 0 mm 3 mps 762 mmHg 38%
    15:00 +20°C° 0 mm 3 mps 762 mmHg 39%
    16:00 +20°C° 0 mm 3 mps 762 mmHg 39%
    17:00 +18°C° 0 mm 2 mps 762 mmHg 44%
    18:00 +16°C° 0 mm 2 mps 762 mmHg 49%
    19:00 +14°C° 0 mm 1 mps 762 mmHg 54%
    20:00 +13°C° 0 mm 2 mps 762 mmHg 57%
    21:00 +12°C° 0 mm 2 mps 763 mmHg 61%
    22:00 +11°C° 0 mm 3 mps 763 mmHg 65%
    23:00 +10°C° 0 mm 3 mps 763 mmHg 68%

    Tomorrow, 19 April, Friday

    Time Temperature Precipitation Wind Pressure Humidity
    00:00 +9°C° 0 mm 3 mps 764 mmHg 71%
    01:00 +9°C° 0 mm 3 mps 764 mmHg 74%
    02:00 +8°C° 0 mm 3 mps 764 mmHg 75%
    03:00 +8°C° 0 mm 2 mps 764 mmHg 76%
    04:00 +7°C° 0 mm 2 mps 764 mmHg 77%
    05:00 +8°C° 0 mm 2 mps 764 mmHg 74%
    06:00 +9°C° 0 mm 2 mps 764 mmHg 71%
    07:00 +10°C° 0 mm 2 mps 765 mmHg 68%
    08:00 +12°C° 0 mm 3 mps 764 mmHg 60%
    09:00 +14°C° 0 mm 3 mps 764 mmHg 53%
    10:00 +17°C° 0 mm 3 mps 764 mmHg 45%
    11:00 +18°C° 0 mm 3 mps 764 mmHg 41%
    12:00 +19°C° 0 mm 3 mps 764 mmHg 37%
    13:00 +19°C° 0 mm 3 mps 764 mmHg 33%
    14:00 +19°C° 0 mm 3 mps 764 mmHg 33%
    15:00 +19°C° 0 mm 3 mps 763 mmHg 34%
    16:00 +19°C° 0 mm 3 mps 763 mmHg 35%
    17:00 +18°C° 0 mm 3 mps 763 mmHg 41%
    18:00 +16°C° 0 mm 2 mps 763 mmHg 47%
    19:00 +14°C° 0 mm 2 mps 763 mmHg 53%
    20:00 +12°C° 0 mm 3 mps 763 mmHg 60%
    21:00 +10°C° 0 mm 3 mps 763 mmHg 67%
    22:00 +9°C° 0 mm 3 mps 764 mmHg 74%
    23:00 +8°C° 0 mm 3 mps 764 mmHg 75%

    Day after tomorrow, 20 April, Saturday

    Time Temperature Precipitation Wind Pressure Humidity
    00:00 +8°C° 0 mm 3 mps 763 mmHg 76%
    01:00 +7°C° 0 mm 3 mps 763 mmHg 77%
    02:00 +6°C° 0 mm 2 mps 763 mmHg 75%
    03:00 +6°C° 0 mm 2 mps 763 mmHg 73%
    04:00 +5°C° 0 mm 2 mps 763 mmHg 70%
    05:00 +6°C° 0 mm 2 mps 763 mmHg 65%
    06:00 +7°C° 0 mm 2 mps 763 mmHg 61%
    07:00 +7°C° 0 mm 3 mps 763 mmHg 56%
    08:00 +9°C° 0 mm 3 mps 763 mmHg 51%
    09:00 +11°C° 0 mm 3 mps 762 mmHg 47%
    10:00 +13°C° 0 mm 3 mps 762 mmHg 42%
    11:00 +14°C° 0 mm 3 mps 762 mmHg 42%
    12:00 +15°C° 0 mm 4 mps 762 mmHg 42%
    13:00 +17°C° 0 mm 4 mps 761 mmHg 41%
    14:00 +17°C° 0 mm 4 mps 761 mmHg 42%
    15:00 +17°C° 0 mm 4 mps 761 mmHg 43%
    16:00 +17°C° 0 mm 4 mps 760 mmHg 43%
    17:00 +15°C° 0 mm 4 mps 760 mmHg 49%
    18:00 +13°C° 0 mm 4 mps 760 mmHg 54%
    19:00 +11°C° 0 mm 3 mps 760 mmHg 59%
    20:00 +10°C° 0 mm 3 mps 760 mmHg 61%
    21:00 +9°C° 0 mm 3 mps 760 mmHg 64%
    22:00 +8°C° 0 mm 3 mps 760 mmHg 66%
    23:00 +7°C° 0 mm 3 mps 760 mmHg 68%

    21 April, Sunday

    Time Temperature Precipitation Wind Pressure Humidity
    00:00 +5°C° 0 mm 3 mps 760 mmHg 69%
    01:00 +6°C° 0 mm 2 mps 760 mmHg 71%
    02:00 +5°C° 0 mm 2 mps 760 mmHg 72%
    03:00 +5°C° 0 mm 2 mps 759 mmHg 72%
    04:00 +5°C° 0 mm 2 mps 759 mmHg 73%
    05:00 +6°C° 0 mm 2 mps 759 mmHg 69%
    06:00 +7°C° 0 mm 2 mps 759 mmHg 65%
    07:00 +8°C° 0 mm 2 mps 759 mmHg 61%
    08:00 +10°C° 0 mm 2 mps 759 mmHg 56%
    09:00 +13°C° 0 mm 2 mps 759 mmHg 50%
    10:00 +14°C° 0 mm 3 mps 758 mmHg 44%
    11:00 +16°C° 0 mm 3 mps 758 mmHg 41%
    12:00 +17°C° 0 mm 3 mps 757 mmHg 38%
    13:00 +18°C° 0 mm 3 mps 757 mmHg 36%
    14:00 +18°C° 0 mm 3 mps 757 mmHg 36%
    15:00 +18°C° 0 mm 3 mps 756 mmHg 36%
    16:00 +18°C° 0 mm 3 mps 756 mmHg 36%
    17:00 +16°C° 0 mm 2 mps 756 mmHg 42%
    18:00 +14°C° 0 mm 1 mps 755 mmHg 47%
    19:00 +13°C° 0 mm 1 mps 755 mmHg 53%
    20:00 +12°C° 0 mm 1 mps 755 mmHg 55%
    21:00 +11°C° 0 mm 1 mps 756 mmHg 57%
    22:00 +11°C° 0 mm 1 mps 756 mmHg 60%
    23:00 +10°C° 0 mm 1 mps 755 mmHg 61%

    22 April, Monday

    Time Temperature Precipitation Wind Pressure Humidity
    00:00 +10°C° 0 mm 1 mps 755 mmHg 63%
    01:00 +9°C° 0 mm 1 mps 755 mmHg 65%
    02:00 +9°C° 0 mm 1 mps 755 mmHg 67%
    03:00 +8°C° 0 mm 1 mps 755 mmHg 69%
    04:00 +8°C° 0 mm 1 mps 755 mmHg 71%
    05:00 +8°C° 0 mm 2 mps 755 mmHg 69%
    06:00 +9°C° 0 mm 2 mps 755 mmHg 67%
    07:00 +10°C° 0 mm 3 mps 755 mmHg 65%
    08:00 +11°C° 0 mm 3 mps 755 mmHg 61%
    09:00 +13°C° 0 mm 3 mps 755 mmHg 57%
    10:00 +14°C° 0 mm 4 mps 755 mmHg 53%
    11:00 +15°C° 0.1 mm 4 mps 755 mmHg 51%
    12:00 +17°C° 0.1 mm 4 mps 754 mmHg 49%
    13:00 +17°C° 0.1 mm 4 mps 754 mmHg 48%
    14:00 +17°C° 0.2 mm 4 mps 754 mmHg 50%
    15:00 +17°C° 0.2 mm 4 mps 754 mmHg 52%
    16:00 +15°C° 0.2 mm 4 mps 754 mmHg 54%
    17:00 +14°C° 0.1 mm 4 mps 754 mmHg 61%
    18:00 +12°C° 0.1 mm 3 mps 754 mmHg 68%
    19:00 +11°C° 0.1 mm 3 mps 754 mmHg 75%
    20:00 +10°C° 0 mm 3 mps 755 mmHg 77%
    21:00 +10°C° 0 mm 4 mps 755 mmHg 79%
    22:00 +8°C° 0 mm 4 mps 755 mmHg 81%
    23:00 +8°C° 0 mm 4 mps 755 mmHg 80%

    23 April, Tuesday

    Time Temperature Precipitation Wind Pressure Humidity
    00:00 +8°C° 0 mm 5 mps 755 mmHg 80%
    01:00 +8°C° 0 mm 5 mps 755 mmHg 79%
    02:00 +7°C° 0 mm 6 mps 755 mmHg 77%
    03:00 +7°C° 0 mm 6 mps 755 mmHg 74%
    04:00 +5°C° 0 mm 6 mps 755 mmHg 72%
    05:00 +6°C° 0 mm 7 mps 755 mmHg 70%
    06:00 +7°C° 0 mm 8 mps 755 mmHg 68%
    07:00 +7°C° 0 mm 8 mps 755 mmHg 66%
    08:00 +10°C° 0 mm 8 mps 754 mmHg 64%
    09:00 +11°C° 0 mm 8 mps 754 mmHg 61%
    10:00 +13°C° 0 mm 8 mps 754 mmHg 59%
    11:00 +13°C° 0 mm 8 mps 753 mmHg 61%
    12:00 +13°C° 0 mm 9 mps 753 mmHg 63%
    13:00 +12°C° 0 mm 9 mps 753 mmHg 65%
    14:00 +15°C° 0 mm 9 mps 752 mmHg 60%
    15:00 +16°C° 0 mm 9 mps 752 mmHg 56%
    16:00 +17°C° 0 mm 8 mps 752 mmHg 52%
    17:00 +16°C° 0 mm 8 mps 752 mmHg 52%
    18:00 +15°C° 0 mm 8 mps 752 mmHg 52%
    19:00 +13°C° 0 mm 9 mps 751 mmHg 52%
    20:00 +12°C° 0 mm 8 mps 752 mmHg 53%
    21:00 +12°C° 0 mm 8 mps 752 mmHg 54%
    22:00 +11°C° 0 mm 7 mps 752 mmHg 56%
    23:00 +11°C° 0 mm 7 mps 752 mmHg 56%
    Show more